GFSMA_250_rhum_144.txt.gz
RH
47 100 100 100 88 86 57 58 81 92 98 100 100 100 100 91 72 89 100 100 100 100 100 100 100 100 100 100 93 94 98 82 72 65 66 61 70 73 55 52 61 86 56
40 42 100 100 100 100 99 46 49 66 77 80 84 89 88 89 77 99 100 100 100 100 100 100 100 96 100 100 100 93 79 64 65 57 60 67 70 45 46 43 57 69 50
33 52 49 94 100 100 100 100 62 52 62 61 63 73 74 87 96 100 100 100 83 83 82 99 100 100 100 100 100 100 86 70 63 57 66 66 46 26 34 33 41 42 36
32 33 38 51 44 48 94 100 100 93 70 68 66 62 79 82 89 97 88 74 79 81 72 81 86 100 98 83 97 99 78 75 53 61 71 52 36 27 29 30 35 28 29
44 40 39 40 39 40 48 78 100 100 100 87 63 61 67 86 85 88 86 84 74 67 66 66 83 97 98 70 35 45 57 58 53 59 69 71 49 28 32 24 30 26 26
42 40 40 40 38 39 43 56 74 100 100 100 100 97 54 65 65 79 81 76 78 83 76 67 76 92 82 50 29 42 45 45 50 58 70 79 62 28 29 28 33 32 24
32 28 33 43 46 38 42 43 45 46 84 100 100 97 100 97 70 83 95 76 70 83 75 72 82 88 65 30 27 36 47 44 51 61 62 77 64 26 30 32 36 41 35
26 35 40 48 50 40 34 38 37 44 72 98 100 100 100 100 100 98 85 85 74 71 79 76 84 84 56 31 26 34 49 50 56 64 65 64 58 33 32 36 39 41 41
28 34 35 33 41 36 26 27 34 44 48 56 51 82 100 100 100 100 100 97 68 64 77 77 93 99 72 35 24 29 43 54 56 57 62 58 57 44 40 41 46 46 43
17 23 29 29 24 29 36 36 33 37 40 46 44 40 67 100 100 99 100 100 82 61 75 83 100 100 73 58 37 34 69 62 57 58 55 52 58 56 51 50 48 45 53
14 19 26 28 31 33 40 43 32 28 32 39 44 57 44 62 100 100 100 100 98 64 64 92 100 100 100 100 100 89 78 67 68 69 50 42 65 69 62 58 52 49 50
15 18 24 29 36 39 38 47 39 22 29 34 43 58 63 57 100 100 100 100 100 84 93 100 100 100 99 98 100 94 88 91 91 61 47 48 45 63 73 60 51 59 42
12 15 17 20 33 32 30 34 40 29 24 44 41 47 44 52 100 100 100 100 100 92 99 100 100 100 100 100 94 99 99 83 68 56 51 44 51 50 47 71 68 61 62
10 10 14 17 24 31 32 29 31 32 27 47 38 43 44 62 60 100 100 100 100 100 100 100 100 100 100 100 91 85 100 82 58 57 60 50 52 68 66 63 48 49 70
7 8 12 15 16 17 21 24 23 28 32 39 36 41 43 48 54 87 100 100 100 100 100 100 100 100 100 100 85 83 96 86 62 54 47 51 53 72 45 62 80 89 97
4 5 7 9 10 10 15 17 22 27 24 25 28 35 41 51 61 67 85 100 100 100 100 100 100 100 100 98 91 97 92 75 81 57 52 58 55 55 58 85 92 90 90
3 3 4 6 7 8 10 11 14 19 25 25 27 32 44 47 52 56 61 69 100 100 100 100 100 100 100 100 88 95 96 80 89 84 79 76 76 64 57 81 84 79 85
3 4 4 4 5 6 7 9 10 15 18 25 27 32 42 41 39 43 48 60 100 100 100 100 100 100 100 100 100 100 100 100 92 84 98 88 86 76 78 100 100 100 100
3 3 4 4 4 5 6 6 8 12 17 22 22 36 33 39 41 45 47 58 100 100 100 100 100 100 100 100 100 100 100 100 100 100 100 98 99 100 96 100 100 100 86
3 3 3 3 4 4 5 6 7 9 13 17 27 32 36 34 42 46 58 58 100 100 100 100 100 100 100 100 100 100 100 100 100 100 100 95 91 100 100 100 100 96 85
3 3 4 4 4 5 5 6 7 8 10 16 19 22 28 32 34 50 45 59 100 100 100 100 100 100 100 100 100 100 100 100 100 99 100 95 100 100 100 98 94 94 100
3 4 4 4 4 4 4 5 6 7 8 10 14 20 29 32 46 49 57 100 100 100 100 100 100 100 100 100 100 100 100 100 100 100 100 100 100 100 100 94 100 100 100
7 7 8 9 8 7 7 8 9 10 12 14 17 23 26 37 53 68 100 100 100 100 100 100 100 100 100 100 100 100 100 100 100 100 100 100 100 100 100 100 100 100 100
13 16 17 18 18 15 14 15 16 16 18 24 31 43 53 67 80 100 100 100 100 100 100 100 100 100 100 100 100 100 100 100 100 100 100 100 100 100 100 100 100 100 100
22 22 26 26 26 27 28 27 33 37 43 51 50 55 83 100 100 100 100 100 100 100 100 100 100 100 100 100 100 95 99 100 95 94 97 100 100 100 100 100 100 100 100
68 46 41 33 29 28 31 31 40 48 58 79 94 88 100 100 100 100 100 100 100 100 100 100 100 100 100 100 100 100 100 100 93 99 100 100 100 100 100 100 100 100 100

GFSMA_250_rhum_147.txt.gz
RH
73 72 98 100 100 100 100 100 75 72 63 83 88 88 98 100 100 100 100 100 90 83 100 85 90 97 95 100 98 100 100 100 100 100 80 74 82 75 44 35 34 28 38
44 64 76 64 60 100 100 100 100 93 84 58 55 64 68 75 87 90 94 98 100 99 89 95 70 70 68 77 88 100 100 100 100 100 72 64 80 50 40 34 31 32 32
25 30 46 59 58 62 83 100 100 100 90 81 71 61 58 56 59 65 73 79 83 100 100 79 62 66 71 77 88 85 93 83 57 50 45 60 77 67 36 33 28 27 39
24 28 32 38 47 63 67 54 82 100 100 98 84 86 96 96 87 81 75 74 77 87 96 91 95 74 81 79 77 83 85 58 49 42 46 57 75 77 69 33 29 32 37
25 25 29 35 35 49 54 64 43 43 40 75 100 100 100 90 78 89 73 78 76 90 86 85 84 81 85 84 73 83 74 39 29 33 47 59 68 67 65 60 26 33 39
24 24 27 26 32 35 44 58 61 46 36 36 59 100 100 95 82 77 78 84 70 78 84 89 83 76 80 88 86 97 80 30 24 28 48 54 73 75 63 59 26 34 42
25 26 24 24 27 32 38 40 50 64 57 45 48 48 100 100 100 100 88 79 70 70 86 85 84 72 73 87 90 100 96 44 22 24 45 62 69 64 64 58 37 36 40
20 20 28 34 37 36 46 48 48 59 54 51 49 46 45 32 74 100 96 100 96 96 93 80 86 58 70 79 94 99 99 61 29 27 34 65 61 63 66 60 54 49 48
26 26 26 34 36 40 39 51 53 46 50 44 43 49 52 51 48 43 50 88 91 98 100 81 86 74 67 80 100 100 100 98 82 52 56 73 67 71 53 61 66 65 61
18 21 27 28 30 33 32 37 47 46 47 52 55 55 54 66 59 54 43 58 99 100 100 98 96 87 72 78 96 100 100 100 95 79 72 69 77 83 54 52 68 78 74
16 19 21 23 29 33 33 30 37 54 45 55 56 53 53 60 69 68 49 52 53 95 100 97 97 98 81 84 100 100 100 100 91 71 83 73 72 71 61 61 59 70 65
13 13 17 22 28 34 39 38 28 40 56 48 46 43 50 58 66 72 77 66 61 52 84 100 100 100 89 99 100 100 100 100 100 81 79 75 62 60 64 61 61 77 74
6 8 8 12 19 30 34 38 39 34 45 51 36 49 52 50 56 64 77 71 70 64 68 100 100 100 95 100 100 100 100 100 100 97 82 78 72 63 53 62 62 63 87
4 6 5 5 8 16 24 33 37 32 35 43 36 37 49 49 63 61 64 72 72 72 63 98 86 91 100 100 100 100 100 100 100 97 85 95 85 74 68 58 55 51 70
3 3 4 5 5 6 14 20 28 35 43 45 49 42 43 53 61 55 59 57 66 72 70 66 98 100 100 100 100 100 100 100 100 100 100 100 96 88 79 66 61 53 52
2 2 3 4 6 6 7 12 20 24 30 36 40 38 41 47 51 53 48 52 58 64 72 79 75 91 100 100 100 100 100 100 100 100 100 100 100 81 87 95 85 95 75
2 2 2 3 4 5 6 7 12 19 25 33 34 36 38 43 41 42 45 45 54 56 62 87 67 67 81 100 100 100 100 100 100 100 87 89 100 100 86 100 85 84 73
2 2 2 3 4 4 6 6 7 12 16 27 37 42 34 40 35 51 53 54 70 58 70 82 61 59 61 99 100 100 100 100 100 100 100 100 84 100 100 99 100 87 98
2 2 2 2 3 4 5 7 8 8 11 16 24 32 36 43 38 47 48 50 56 57 67 71 86 60 55 100 100 100 100 100 100 99 100 100 99 91 100 100 100 100 100
2 2 2 3 3 3 4 5 7 8 10 13 16 21 26 40 48 49 63 66 72 69 66 84 70 75 60 100 100 100 100 100 100 100 100 98 100 100 100 100 98 89 86
2 2 3 3 3 3 4 5 6 7 8 11 16 22 29 39 44 50 47 54 80 83 99 86 72 91 57 80 100 100 100 100 100 100 100 100 100 100 100 100 100 98 100
3 3 3 4 4 4 4 4 5 6 7 9 13 17 17 17 21 24 33 45 52 67 75 73 84 92 61 69 100 100 100 100 100 100 100 100 100 100 100 88 100 100 100
4 4 5 5 5 5 5 5 5 6 6 6 6 7 7 9 11 15 20 25 34 44 67 82 95 71 79 100 100 100 100 100 100 100 100 100 100 99 100 100 100 100 100
7 7 7 8 8 6 6 5 5 6 6 6 6 8 8 9 11 15 17 30 36 68 93 82 88 100 100 100 100 100 100 100 100 100 100 100 100 100 100 100 100 100 100
19 18 18 22 23 20 17 16 14 13 11 10 13 11 13 21 19 26 30 41 45 50 56 85 95 100 100 100 100 100 100 99 93 89 100 100 100 99 98 81 93 95 86
35 44 37 36 34 39 36 32 27 26 26 28 24 20 28 22 28 30 32 54 78 100 100 100 100 100 100 100 100 100 100 95 90 88 99 99 88 88 93 87 98 95 88

GFSMA_250_rhum_150.txt.gz
RH
78 85 75 90 98 100 100 100 100 94 88 91 98 84 90 87 95 100 100 100 100 100 100 100 100 100 99 86 76 81 87 95 98 98 96 62 46 54 88 66 39 29 42
28 42 57 82 95 89 93 92 100 100 100 96 91 87 93 75 63 66 69 76 73 63 73 79 90 100 100 99 92 82 90 92 83 99 77 49 35 57 87 82 68 34 46
24 26 37 51 53 66 64 71 65 100 100 100 99 97 100 90 79 91 92 88 81 84 68 62 83 100 100 100 100 100 100 93 88 89 77 40 27 52 80 81 69 57 31
25 24 27 42 59 57 56 58 68 69 81 84 100 100 96 71 70 78 90 90 80 88 86 71 68 81 100 100 100 100 100 100 98 100 98 44 24 50 72 79 71 64 59
26 27 27 25 26 40 55 60 66 68 62 57 52 65 59 90 73 63 78 82 85 89 82 89 86 83 99 99 100 100 100 100 100 99 100 64 24 40 67 87 74 61 61
24 26 26 28 28 26 28 28 37 55 61 59 51 46 46 42 42 87 100 95 92 85 96 100 99 86 100 100 99 98 100 100 99 95 96 68 29 30 70 89 80 58 52
18 20 22 24 24 27 32 30 26 31 30 38 43 45 49 47 50 46 41 64 44 51 75 80 85 98 100 98 87 100 99 100 100 100 100 93 78 45 79 95 89 80 60
21 20 21 22 23 23 25 30 31 31 28 30 46 45 44 50 60 63 50 43 35 38 60 92 88 74 77 80 100 81 100 87 100 100 100 96 90 86 96 97 100 95 67
26 20 19 21 23 24 23 25 27 34 36 36 36 51 46 43 50 59 59 58 54 55 38 39 37 70 93 95 100 99 98 77 100 100 100 100 97 78 94 97 99 91 79
20 25 22 18 22 26 23 25 28 30 38 41 37 38 50 56 55 60 69 62 66 57 55 47 40 47 61 79 100 92 91 90 100 100 100 100 96 98 90 84 81 75 78
13 14 16 18 17 20 28 26 27 28 35 41 44 39 43 54 60 70 76 70 58 64 66 74 70 58 52 62 80 89 100 86 100 100 100 100 96 99 97 89 82 80 67
7 9 14 11 12 14 16 25 25 31 34 34 40 48 48 44 53 64 73 78 73 76 70 67 80 86 73 66 73 100 100 100 97 100 100 100 100 98 92 95 91 90 73
2 4 5 7 8 12 12 17 18 24 34 34 34 45 53 45 49 54 60 77 77 76 74 78 87 81 81 74 78 82 99 99 90 100 100 100 100 100 98 100 100 100 78
2 2 3 3 5 6 6 8 11 22 28 32 35 42 45 53 48 45 54 61 75 79 73 84 78 74 83 92 85 98 83 80 90 100 100 100 100 100 100 96 100 100 94
1 2 2 3 3 5 6 5 5 11 16 28 30 32 45 48 56 52 53 57 52 66 76 72 73 79 71 86 96 85 78 67 82 100 100 100 100 100 100 100 100 96 100
1 1 1 2 3 4 5 6 6 8 11 18 27 31 32 35 55 59 52 54 54 57 54 64 75 80 70 73 81 91 92 89 70 93 100 100 100 100 100 100 100 100 100
1 1 1 1 2 2 4 5 7 6 7 10 16 24 28 32 34 51 63 66 58 60 57 58 67 72 69 90 79 84 84 100 82 73 99 100 100 100 100 100 100 100 100
1 1 1 1 2 2 3 4 5 7 7 8 11 16 21 23 32 36 40 58 56 54 52 59 58 71 70 92 74 90 94 90 100 86 83 100 100 100 100 100 100 100 100
1 1 1 2 2 2 3 3 3 5 6 7 8 10 14 18 25 33 37 50 52 54 52 62 65 79 65 80 89 91 100 100 100 98 82 100 100 100 100 100 100 100 100
1 1 1 2 2 2 2 3 3 3 4 6 7 8 12 12 15 21 34 49 51 61 62 76 92 95 80 70 86 85 100 100 100 98 82 96 100 100 100 100 100 100 100
2 2 2 2 2 2 3 3 3 3 3 4 4 5 7 9 12 16 25 39 45 64 68 67 93 100 98 100 94 73 99 100 100 98 99 88 100 100 100 100 100 100 100
2 2 3 3 3 3 3 3 4 4 4 4 4 5 5 8 10 15 24 29 41 62 73 85 87 100 91 86 72 50 83 92 94 97 89 85 100 100 100 100 100 100 100
3 3 4 4 4 4 4 4 4 4 4 4 5 6 6 8 11 16 22 32 39 40 45 43 47 62 53 38 31 36 43 47 82 82 71 86 100 100 100 100 100 100 100
5 5 6 6 6 5 5 5 5 5 5 5 6 6 6 7 9 13 16 16 17 20 27 34 27 18 18 23 40 58 67 80 83 78 81 89 99 100 100 100 100 100 98
12 8 9 8 8 8 6 6 6 6 6 6 6 7 7 8 8 8 9 12 10 10 9 10 13 18 31 44 47 49 64 63 85 98 97 93 84 100 100 97 96 92 99
32 38 41 30 27 22 21 17 16 14 13 10 7 8 8 8 8 8 9 10 10 11 12 15 26 26 28 39 53 76 82 88 83 98 100 100 97 100 100 100 100 100 100

GFSMA_250_rhum_153.txt.gz
RH
31 42 69 100 95 89 99 100 98 66 57 68 84 94 98 95 97 100 100 92 94 94 100 87 76 75 89 100 100 100 100 100 100 96 94 98 100 100 51 42 82 79 76
27 30 41 64 68 71 84 97 100 100 98 66 72 78 71 75 99 88 80 74 81 75 66 69 70 80 76 100 100 100 100 100 100 97 97 91 100 100 63 38 78 81 69
21 27 35 34 40 40 49 54 88 86 93 100 100 85 71 70 72 75 79 84 80 81 83 88 78 91 84 86 87 100 100 100 100 100 99 99 100 98 69 32 66 80 72
22 22 25 30 39 39 42 65 66 65 64 75 80 97 99 100 87 85 79 66 74 78 83 100 99 93 100 100 100 100 100 100 100 100 100 98 100 93 85 35 51 89 87
22 23 24 25 28 41 54 53 52 63 59 69 72 71 68 66 83 87 78 65 50 37 63 98 100 100 100 100 100 100 100 100 100 100 100 99 100 91 100 99 63 90 96
19 20 22 24 26 28 28 32 46 54 57 68 64 66 59 57 48 48 48 42 37 38 73 90 99 56 85 100 100 100 100 100 100 100 98 96 97 87 89 100 99 96 99
15 16 19 22 22 25 28 29 29 28 31 32 38 36 48 58 54 50 49 45 43 37 39 51 39 34 37 76 92 82 82 100 99 100 76 93 97 97 74 97 99 100 100
22 19 17 18 23 24 28 29 29 30 28 28 30 32 34 40 33 40 39 45 48 48 45 49 46 39 44 48 53 91 84 98 92 100 100 95 95 100 100 100 98 100 100
17 18 18 18 16 17 20 26 32 36 34 31 28 26 25 30 34 32 35 36 45 46 46 49 45 50 49 46 36 36 39 66 100 100 100 90 100 100 100 100 98 100 100
15 15 16 16 16 16 14 17 22 30 33 37 35 34 28 24 31 40 37 35 40 48 53 49 46 59 58 52 54 53 51 50 56 80 99 97 100 100 100 98 81 90 100
9 9 10 11 13 12 12 12 15 18 27 31 38 42 39 34 30 36 46 45 44 46 53 56 55 72 73 72 70 62 62 60 67 61 79 100 100 100 100 100 89 76 80
6 6 7 7 8 8 10 11 11 12 13 19 27 35 41 45 46 36 45 53 53 54 53 57 64 66 77 79 76 72 74 76 76 74 72 63 88 94 100 100 100 98 79
3 4 4 4 4 5 6 8 8 9 10 10 17 22 30 39 43 49 42 53 60 56 56 50 62 69 73 74 71 73 77 79 72 71 77 88 94 85 100 100 100 100 100
2 2 2 2 2 3 4 6 7 7 8 8 11 16 20 25 33 43 48 51 58 59 70 60 61 67 70 80 74 75 86 79 82 88 89 85 80 86 81 100 100 100 100
1 1 1 1 2 2 2 3 4 6 9 8 9 10 14 20 19 29 38 46 58 57 65 60 59 70 68 76 75 75 87 89 89 86 99 99 100 95 88 77 99 100 100
1 1 1 1 1 1 1 2 2 3 5 10 12 12 11 17 20 23 28 34 41 54 56 75 84 69 67 70 73 80 85 86 88 95 99 100 94 98 100 94 84 88 100
1 1 1 1 1 1 1 1 2 3 3 5 8 10 13 15 18 18 28 27 30 44 52 70 79 81 83 85 74 86 93 93 93 88 100 98 100 100 100 100 100 89 90
1 1 1 1 1 1 1 1 2 2 3 4 7 8 10 12 17 23 27 30 32 33 37 51 62 66 68 80 91 100 100 100 100 100 96 100 100 100 100 96 100 100 100
1 1 1 1 1 1 1 1 2 2 2 3 4 5 8 12 13 19 24 30 31 26 27 39 46 64 73 80 87 98 100 100 98 91 90 94 95 86 96 95 100 100 100
2 1 1 1 1 1 1 1 2 2 2 3 3 4 6 9 10 13 15 18 23 24 29 37 38 51 64 74 79 97 100 98 98 89 97 100 92 100 94 85 97 100 100
2 2 2 2 2 2 2 2 2 2 3 3 3 4 5 7 9 10 11 13 17 22 29 35 42 43 55 69 75 79 93 88 88 94 93 95 90 94 89 80 78 99 100
2 2 2 2 2 2 3 2 2 2 3 3 3 4 4 5 6 8 11 13 15 20 28 32 42 45 50 60 69 77 81 89 100 88 84 93 82 77 81 79 73 89 100
4 3 3 3 3 3 3 3 4 4 4 4 4 4 4 5 5 6 6 8 10 12 15 22 30 34 43 48 56 66 64 64 68 85 64 63 66 82 71 53 55 83 89
6 6 5 5 5 5 5 5 5 5 4 5 4 5 5 5 5 6 6 6 7 8 9 12 17 25 27 29 37 50 56 56 62 61 49 60 65 47 31 35 54 73 87
17 17 11 10 8 8 7 6 6 6 6 6 6 6 6 6 6 6 6 7 7 8 9 10 12 16 20 26 32 38 39 38 41 43 40 27 23 27 46 83 95 98 99
78 66 61 46 30 26 19 13 12 8 7 7 7 7 8 8 7 7 8 8 8 10 11 13 15 19 21 23 23 23 24 21 18 19 20 23 38 70 88 100 100 100 100

GFSMA_250_rhum_156.txt.gz
RH
22 23 26 32 47 71 93 95 98 100 74 65 76 74 80 98 86 82 76 80 86 89 81 95 98 92 77 72 85 90 100 100 100 100 94 98 83 99 96 88 82 36 66
19 21 22 27 34 37 47 89 89 92 98 100 93 72 64 66 76 76 88 83 80 80 66 75 77 74 77 94 95 98 100 95 100 100 94 78 94 100 92 87 81 57 38
19 19 20 22 24 51 50 49 68 65 61 81 100 99 100 93 80 59 61 68 75 82 84 83 78 86 96 100 100 99 95 100 100 100 99 96 99 97 93 78 84 91 82
17 18 19 20 25 39 61 63 49 56 56 58 62 73 79 91 100 100 89 62 63 57 66 62 68 79 94 100 100 100 100 100 99 100 100 100 98 92 89 77 81 74 75
18 18 18 19 20 22 36 55 65 68 55 50 62 67 72 64 76 89 75 82 85 83 78 70 49 34 73 97 98 98 91 100 100 100 100 100 94 78 74 88 86 77 86
16 16 17 17 18 20 22 24 33 47 61 51 63 54 62 63 64 80 71 67 56 53 55 48 36 40 45 66 53 38 49 84 95 99 99 85 99 96 87 95 100 98 76
14 14 14 16 18 18 20 21 23 25 27 30 30 34 52 63 58 65 64 67 64 52 43 38 38 37 39 46 43 45 41 39 53 86 100 100 98 99 100 100 100 100 76
16 16 15 15 15 14 15 17 20 22 25 27 30 30 28 29 34 41 40 37 46 50 40 39 38 40 39 39 40 37 47 45 41 37 38 54 52 76 98 97 100 100 82
15 14 14 13 13 14 15 14 14 17 20 24 26 29 31 28 29 31 33 36 38 43 37 32 29 33 38 40 42 44 41 43 50 53 48 50 54 55 63 98 100 100 98
15 16 14 13 12 12 12 13 14 14 14 18 23 26 31 37 34 32 34 36 36 38 37 36 37 34 36 39 42 42 40 46 57 59 59 62 68 62 54 55 87 100 100
12 12 12 12 13 13 15 15 15 15 14 14 15 18 21 26 32 38 36 40 46 45 39 36 37 38 43 46 44 45 51 49 52 64 74 63 69 78 73 73 71 74 94
14 14 12 12 12 12 13 13 14 14 14 15 14 15 15 18 23 30 37 38 42 47 47 46 50 47 48 56 57 55 48 54 59 66 70 79 76 72 85 79 74 77 90
5 5 5 4 4 4 5 7 8 10 13 12 12 14 16 15 18 23 28 36 41 44 44 46 50 54 55 58 62 62 58 57 63 61 71 84 79 88 90 98 100 94 84
4 3 3 3 3 3 2 3 3 4 5 8 9 11 15 16 15 17 21 28 40 45 46 47 49 56 58 59 60 66 69 73 67 66 70 74 84 86 91 100 100 99 100
3 3 2 2 2 2 2 2 2 2 3 4 6 8 9 12 15 17 19 22 29 37 47 48 49 55 57 59 60 63 66 79 74 70 78 84 96 90 92 92 95 92 100
3 3 2 2 2 2 2 1 1 1 2 2 3 5 6 8 13 12 15 19 24 31 39 50 50 53 53 56 52 55 64 65 75 84 92 91 98 97 93 98 94 96 92
3 2 2 2 1 1 1 1 1 2 2 2 2 3 4 6 9 12 14 16 19 26 33 39 47 54 49 54 53 50 62 68 71 88 92 97 98 99 100 100 100 100 100
3 2 2 1 1 1 1 1 1 2 2 2 2 2 2 4 6 9 13 14 16 19 25 33 37 50 48 48 51 60 60 61 72 86 93 91 87 82 84 93 100 100 100
3 2 2 2 1 1 1 1 1 2 2 2 2 2 2 2 4 5 7 12 17 22 26 28 33 37 45 50 50 54 66 62 68 74 83 86 93 90 100 100 99 100 100
4 3 3 2 2 2 1 1 1 1 1 1 2 2 2 2 3 3 5 6 9 16 20 25 26 34 38 53 54 54 70 70 67 74 80 82 87 90 84 97 100 100 97
4 3 3 3 3 2 2 2 2 2 2 2 2 2 2 2 3 3 4 6 6 8 14 17 24 26 34 43 52 50 64 75 72 74 73 90 79 86 98 100 98 98 96
7 5 4 3 2 2 2 2 2 2 2 2 2 2 2 2 3 4 4 5 5 6 8 12 16 22 32 31 35 42 52 65 73 82 75 79 79 90 98 97 92 86 96
15 8 6 5 4 3 3 2 3 3 3 3 3 3 3 3 3 3 4 4 5 5 6 7 8 9 13 20 26 38 44 57 62 59 54 73 66 88 80 74 86 77 86
47 26 16 10 8 6 4 4 4 4 4 4 4 4 4 4 4 5 5 5 6 6 7 8 9 11 14 22 31 38 42 44 40 42 44 48 52 62 60 64 69 71 61
56 61 40 34 25 21 18 11 7 6 6 5 5 5 5 5 4 5 5 5 5 5 6 7 8 10 10 12 13 14 15 16 18 20 24 30 32 37 51 58 48 31 26
100 72 66 70 59 56 55 39 31 15 10 8 7 7 7 6 7 7 7 7 7 8 8 9 9 10 10 11 12 12 13 15 17 21 31 40 41 35 30 32 52 78 91